Regional Weather Roundup
Issued by NWS

Home | Current Version | Previous Version | Graphics & Text | Print | Product List | Glossary On
Versions: 1 2 3 4 5 6 7 8 9 10 11 12 13 14 15 16 17 18 19 20 21 22 23 24 25 26 27 28 29 30 31 32 33 34 35 36 37 38 39 40 41 42 43 44 45 46 47 48 49 50
000
ASUS44 KMEG 191900
RWRTN
TENNESSEE HOURLY STATE WEATHER ROUNDUP
NATIONAL WEATHER SERVICE MEMPHIS TN
100 PM CST FRI DEC 19 2014

TNZ002-004-019-021-049-052-054-088>092-192000-
WEST TENNESSEE

CITY           SKY/WX    TMP DP  RH WIND       PRES   REMARKS
MEMPHIS INTL   CLOUDY    44  34  67 NE7       30.24F
NWS MEMPHIS      N/A     42 N/A N/A MISG        N/A
JACKSON        CLOUDY    42  29  59 NE3       30.25F
DYERSBURG      CLOUDY    41  21  45 NE5       30.29F
UNION CITY     CLOUDY    37  28  70 CALM      30.27R
PARIS          CLOUDY    37  27  65 CALM      30.27R
LEXINGTON      CLOUDY    39  28  65 CALM      30.23F
SAVANNAH       CLOUDY    41  30  65 N6        30.24S
$$

TNZ008-025-027-028-033-062-065-066-192000-
NORTH MIDDLE TENNESSEE

CITY           SKY/WX    TMP DP  RH WIND       PRES   REMARKS
NASHVILLE      CLOUDY    40  28  62 NE5       30.24F
CLARKSVILLE    CLOUDY    39  29  67 N6        30.25F WCI  35
COOKEVILLE     SUNNY     37  28  70 VRB5      30.17F WCI  34
CROSSVILLE     CLOUDY    40  24  53 N6        30.14F
$$

TNZ061-075-076-078-094-096-097-192000-
SOUTH MIDDLE TENNESSEE

CITY           SKY/WX    TMP DP  RH WIND       PRES   REMARKS
FAYETTEVILLE   MOSUNNY   37  28  70 MISG      30.18S
TULLAHOMA      SUNNY     39  27  60 NE5       30.18S
WINCHESTER     SUNNY     39  28  65 NE6       30.18F WCI  35
SHELBYVILLE    SUNNY     39  28  65 NE5       30.20S
$$

TNZ017-018-042-046-047-192000-
NORTHEAST TENNESSEE

CITY           SKY/WX    TMP DP  RH WIND       PRES   REMARKS
TRI CITIES     CLOUDY    45  23  42 VRB3      30.16F
ELIZABETHTON   CLEAR     45  19  36 VRB5      30.15S
$$

TNZ012-013-036-069-073-074-192000-
CENTRAL EAST TENNESSEE

CITY           SKY/WX    TMP DP  RH WIND       PRES   REMARKS
KNOXVILLE      CLOUDY    45  26  47 NE5       30.17F
OAK RIDGE      CLOUDY    48  23  37 CALM      30.18F
GATLINBURG     CLEAR     45  25  45 CALM      30.16F
$$

TNZ083-085-099-192000-
SOUTHEAST TENNESSEE

CITY           SKY/WX    TMP DP  RH WIND       PRES   REMARKS
CHATTANOOGA    CLOUDY    46  26  45 N7        30.16F
$$

SKY/WX REPORTED AS FAIR MEANS FEW OR NO CLOUDS BELOW
12 THOUSAND FEET.



USA.gov is the U.S. government's official web portal to all federal, state and local government web resources and services.